Flag for Greenland

Past Weather in Upernavik, Greenland — Yesterday and Last 2 Weeks

Now
36 °F

Chilly.


Feels Like: 27 °F
Forecast: 38 / 37 °F
Wind: 16 mph from South

Location: Edderfugle Oeer

Current Time: Jul 4, 2020 at 5:42:42 pm

Latest Report: Jul 4, 2020 at 4:00 pm


Visibility: N/A

Pressure: 29.73 "Hg

Humidity: 95%

Dew Point: 35 °F

Location of UpernavikLocation

Past Weather in Upernavik — Graph

°F

Upernavik Temperature Yesterday

Maximum temperature yesterday: 36 °F (at 11:00 pm)
Minimum temperature yesterday: 31 °F (at 4:00 am)
Average temperature yesterday: 34 °F

High & Low Weather Summary for the Past Weeks

 TemperatureHumidityPressure
High48 °F (Jun 20, 3:00 pm)100% (Jun 24, 7:00 am)30.33 "Hg (Jun 24, 7:00 am)
Low30 °F (Jun 24, 9:00 am)49% (Jun 20, 3:00 pm)29.59 "Hg (Jun 23, 5:00 pm)
Average36 °F92%29.95 "Hg
* Reported Jun 19 4:00 pm — Jul 4 4:00 pm, Upernavik. Weather by CustomWeather, © 2020

Note: Actual official high and low records may vary slightly from our data, if they occured in-between our weather recording intervals... More about our weather records

Upernavik Weather History for the Previous 24 Hours

Scroll right to see more
 ConditionsComfort  
Time TempWeatherWind HumidityBarometerVisibility
4:00 pm
Sat, Jul 4
36 °FChilly.16 mph95%29.73 "HgN/A
3:00 pm36 °FChilly.17 mph96%29.72 "HgN/A
2:00 pm36 °FChilly.15 mph97%29.72 "HgN/A
1:00 pm35 °FChilly.16 mph97%29.72 "HgN/A
12:00 pm36 °FChilly.20 mph95%29.72 "HgN/A
11:00 am35 °FChilly.20 mph97%29.72 "HgN/A
10:00 am34 °FChilly.22 mph98%29.72 "HgN/A
9:00 am34 °FChilly.16 mph96%29.72 "HgN/A
8:00 am34 °FChilly.18 mph97%29.71 "HgN/A
7:00 am34 °FChilly.18 mph96%29.72 "HgN/A
6:00 am34 °FChilly.18 mph97%29.71 "HgN/A
5:00 am34 °FChilly.15 mph98%29.71 "HgN/A
4:00 am34 °FChilly.15 mph97%29.70 "HgN/A
3:00 am34 °FChilly.16 mph97%29.70 "HgN/A
2:00 am35 °FChilly.16 mph98%29.70 "HgN/A
1:00 am35 °FChilly.14 mph97%29.72 "HgN/A
12:00 am36 °FChilly.12 mph97%29.72 "HgN/A
11:00 pm
Fri, Jul 3
36 °FChilly.13 mph98%29.72 "HgN/A
10:00 pm36 °FChilly.12 mph98%29.72 "HgN/A
9:00 pm36 °FChilly.8 mph99%29.72 "HgN/A
8:00 pm36 °FChilly.9 mph98%29.72 "HgN/A
7:00 pm36 °FChilly.10 mph95%29.73 "HgN/A
6:00 pm36 °FChilly.9 mph96%29.74 "HgN/A
5:00 pm35 °FChilly.10 mph97%29.74 "HgN/A
Weather by CustomWeather, © 2020

See weather overview